Weather History for Liberia, Costa Rica

Change the Weather History Date:

Saturday, December 7, 2013

  Actual Average Record
Temperature  
Mean Temperature 82 °F -  
Max Temperature 92 °F 87 °F 93 °F (2000)
Min Temperature 72 °F 72 °F 64 °F (2011)
Cooling Degree Days 17    
Growing Degree Days 32 (Base 50)    
Moisture  
Dew Point 69 °F    
Average Humidity 55    
Maximum Humidity 78    
Minimum Humidity 36    
Precipitation  
Precipitation 0.00 in - - ()
Sea Level Pressure  
Sea Level Pressure 29.85 in    
Wind  
Wind Speed 7 mph ()    
Max Wind Speed 13 mph    
Max Gust Speed -    
Visibility 7.7 miles    
Events      
Averages and records for this station are not official NWS values.
T = Trace of Precipitation, MM = Missing Value Source: Averaged Metar Reports

Daily Weather History Graph

Daily Weather History Graph

Search for Another Location

Airport:

Trip Planner

Search our weather history database for the weather conditions in past years. The results will help you decide how hot, cold, wet, or windy it might be!

Date:

Astronomy

Dec. 07, 2013 Rise Set
Actual Time 5:47 AM CST 5:19 PM CST
Civil Twilight 5:25 AM CST 5:42 PM CST
Nautical Twilight 4:58 AM CST 6:08 PM CST
Astronomical Twilight 4:32 AM CST 6:34 PM CST
Moon 10:08 AM CST (12/7) 10:19 PM CST (12/7)
Length of Visible Light 12h 17m
Length of Day
11h 31m
Waxing Crescent, 29% of the Moon is Illuminated
Dec 7
Waxing Crescent
Dec 9
First Quarter
Dec 17
Full
Dec 25
Last Quarter
Jan 1
New

Hourly Weather History & Observations

Time (CST) Temp. Heat Index Dew Point Humidity Pressure Visibility Wind Dir Wind Speed Gust Speed Precip Events Conditions
6:00 AM 75 °F - 68 °F 72% 29.90 in 12 mi ESE 3.5 mph - -   Scattered Clouds
6:00 AM 75.2 °F - 68.0 °F 78% 29.87 in 6.2 mi ESE 3.5 mph - N/A   Scattered Clouds
7:00 AM 78.8 °F - 69.8 °F 74% 29.89 in 6.2 mi East 3.5 mph - N/A   Partly Cloudy
8:00 AM 84.2 °F 88.4 °F 69.8 °F 62% 29.90 in 6.2 mi ENE 6.9 mph - N/A   Partly Cloudy
9:00 AM 87 °F - 68 °F 44% 29.94 in 12 mi ENE 12.7 mph - -   Clear
9:00 AM 86.0 °F 89.4 °F 68.0 °F 55% 29.91 in 6.2 mi ENE 12.7 mph - N/A   Scattered Clouds
10:00 AM 87.8 °F 91.4 °F 68.0 °F 52% 29.90 in 6.2 mi ENE 10.4 mph - N/A   Scattered Clouds
11:00 AM 89.6 °F 93.4 °F 68.0 °F 49% 29.88 in 6.2 mi East 10.4 mph - N/A   Scattered Clouds
12:00 PM 91 °F - 68 °F 37% 29.88 in 12 mi ENE 10.4 mph - -   Partly Cloudy
12:00 PM 91.4 °F 95.4 °F 68.0 °F 46% 29.85 in 6.2 mi ENE 10.4 mph - N/A   Scattered Clouds
1:00 PM 91.4 °F 96.8 °F 69.8 °F 49% 29.82 in 6.2 mi ENE 9.2 mph - N/A   Mostly Cloudy
2:00 PM 89.6 °F 94.7 °F 69.8 °F 52% 29.79 in 6.2 mi East 6.9 mph - N/A   Scattered Clouds
3:00 PM 91 °F - 67 °F 36% 29.81 in 12 mi East 8.1 mph - -   Scattered Clouds
3:00 PM 91.4 °F 95.4 °F 68.0 °F 46% 29.77 in 6.2 mi East 8.1 mph - N/A   Partly Cloudy
4:00 PM 89.6 °F 93.4 °F 68.0 °F 49% 29.77 in 6.2 mi East 11.5 mph - N/A   Partly Cloudy
5:00 PM 87.8 °F 92.6 °F 69.8 °F 55% 29.79 in 6.2 mi ENE 11.5 mph - N/A   Scattered Clouds
6:00 PM 84 °F - 69 °F 52% 29.84 in 12 mi ENE 9.2 mph - -   Partly Cloudy
6:00 PM 84.2 °F 88.4 °F 69.8 °F 62% 29.81 in 6.2 mi ENE 9.2 mph - N/A   Scattered Clouds
7:00 PM 80.6 °F 83.9 °F 69.8 °F 70% 29.84 in 6.2 mi East 4.6 mph - N/A   Partly Cloudy
8:00 PM 80.6 °F 83.2 °F 68.0 °F 65% 29.86 in 6.2 mi ENE 9.2 mph - N/A   Partly Cloudy